When you browse on this site, cookies collect data to enhance your experience and personalize the content and advertising you see.
Visit our Privacy Policy to learn more. By continuing to use the site, you agree to this use of cookies and data.
  • In Deutschland
  • Länderverzeichnis
  • Für 7 Tage
  • Wassertemperatur
  • Satellitenkarten
  • Wetterkarte
  • Widgets
  • user-avatar
    Anmelden

    Stündliche Wetter Hurghada

    Heute, 22 Januar, Dienstag

    Zeit Temperatur Niederschläge Wind Luftdruck Luftfeuchtigkeit
    00:00 +13°C° 0 mm 1 m/S 683 mmHg 26%
    01:00 +12°C° 0 mm 1 m/S 683 mmHg 24%
    02:00 +12°C° 0 mm 1 m/S 683 mmHg 25%
    03:00 +11°C° 0 mm 1 m/S 682 mmHg 24%
    04:00 +11°C° 0 mm 1 m/S 682 mmHg 23%
    05:00 +10°C° 0 mm 1 m/S 682 mmHg 22%
    06:00 +12°C° 0 mm 1 m/S 683 mmHg 19%
    07:00 +13°C° 0 mm 1 m/S 683 mmHg 16%
    08:00 +16°C° 0 mm 1 m/S 684 mmHg 11%
    09:00 +18°C° 0 mm 1 m/S 684 mmHg 10%
    10:00 +20°C° 0 mm 1 m/S 685 mmHg 10%
    11:00 +20°C° 0 mm 2 m/S 685 mmHg 9%
    12:00 +20°C° 0 mm 2 m/S 685 mmHg 9%
    13:00 +21°C° 0 mm 2 m/S 685 mmHg 9%
    14:00 +21°C° 0 mm 2 m/S 685 mmHg 9%
    15:00 +20°C° 0 mm 2 m/S 684 mmHg 12%
    16:00 +19°C° 0 mm 2 m/S 684 mmHg 14%
    17:00 +19°C° 0 mm 1 m/S 683 mmHg 17%
    18:00 +16°C° 0 mm 1 m/S 683 mmHg 21%
    19:00 +15°C° 0 mm 1 m/S 683 mmHg 25%
    20:00 +13°C° 0 mm 1 m/S 683 mmHg 29%
    21:00 +12°C° 0 mm 1 m/S 683 mmHg 29%
    22:00 +12°C° 0 mm 1 m/S 683 mmHg 29%
    23:00 +11°C° 0 mm 1 m/S 682 mmHg 30%

    Morgen, 23 Januar, Mittwoch

    Zeit Temperatur Niederschläge Wind Luftdruck Luftfeuchtigkeit
    00:00 +11°C° 0 mm 1 m/S 682 mmHg 30%
    01:00 +10°C° 0 mm 1 m/S 682 mmHg 30%
    02:00 +10°C° 0 mm 1 m/S 682 mmHg 30%
    03:00 +9°C° 0 mm 1 m/S 681 mmHg 31%
    04:00 +9°C° 0 mm 1 m/S 681 mmHg 31%
    05:00 +9°C° 0 mm 1 m/S 681 mmHg 32%
    06:00 +10°C° 0 mm 1 m/S 682 mmHg 30%
    07:00 +11°C° 0 mm 1 m/S 682 mmHg 28%
    08:00 +12°C° 0 mm 1 m/S 683 mmHg 26%
    09:00 +14°C° 0 mm 1 m/S 683 mmHg 23%
    10:00 +16°C° 0 mm 1 m/S 683 mmHg 20%
    11:00 +19°C° 0 mm 1 m/S 684 mmHg 18%
    12:00 +19°C° 0 mm 2 m/S 683 mmHg 17%
    13:00 +20°C° 0 mm 2 m/S 683 mmHg 16%
    14:00 +20°C° 0 mm 3 m/S 682 mmHg 15%
    15:00 +20°C° 0 mm 2 m/S 682 mmHg 18%
    16:00 +19°C° 0 mm 2 m/S 682 mmHg 20%
    17:00 +18°C° 0 mm 2 m/S 682 mmHg 22%
    18:00 +17°C° 0 mm 2 m/S 682 mmHg 24%
    19:00 +15°C° 0 mm 1 m/S 681 mmHg 25%
    20:00 +14°C° 0 mm 1 m/S 681 mmHg 27%
    21:00 +14°C° 0 mm 1 m/S 681 mmHg 26%
    22:00 +13°C° 0 mm 1 m/S 681 mmHg 25%
    23:00 +13°C° 0 mm 1 m/S 681 mmHg 24%

    übermorgen, 24 Januar, Donnerstag

    Zeit Temperatur Niederschläge Wind Luftdruck Luftfeuchtigkeit
    00:00 +13°C° 0 mm 1 m/S 681 mmHg 22%
    01:00 +13°C° 0 mm 1 m/S 681 mmHg 20%
    02:00 +13°C° 0 mm 1 m/S 681 mmHg 18%
    03:00 +13°C° 0 mm 1 m/S 680 mmHg 17%
    04:00 +13°C° 0 mm 1 m/S 680 mmHg 17%
    05:00 +12°C° 0 mm 1 m/S 680 mmHg 16%
    06:00 +13°C° 0 mm 1 m/S 680 mmHg 17%
    07:00 +15°C° 0 mm 1 m/S 681 mmHg 17%
    08:00 +16°C° 0 mm 1 m/S 682 mmHg 18%
    09:00 +18°C° 0 mm 2 m/S 682 mmHg 18%
    10:00 +20°C° 0 mm 3 m/S 682 mmHg 18%
    11:00 +22°C° 0 mm 4 m/S 683 mmHg 18%
    12:00 +23°C° 0 mm 4 m/S 682 mmHg 17%
    13:00 +25°C° 0 mm 5 m/S 682 mmHg 16%
    14:00 +26°C° 0 mm 6 m/S 682 mmHg 16%
    15:00 +25°C° 0 mm 5 m/S 682 mmHg 18%
    16:00 +22°C° 0 mm 3 m/S 682 mmHg 20%
    17:00 +21°C° 0 mm 2 m/S 681 mmHg 22%
    18:00 +19°C° 0 mm 2 m/S 681 mmHg 24%
    19:00 +18°C° 0 mm 2 m/S 681 mmHg 26%
    20:00 +16°C° 0 mm 1 m/S 682 mmHg 29%
    21:00 +15°C° 0 mm 1 m/S 682 mmHg 27%
    22:00 +15°C° 0 mm 1 m/S 682 mmHg 26%
    23:00 +14°C° 0 mm 1 m/S 682 mmHg 24%

    25 Januar, Freitag

    Zeit Temperatur Niederschläge Wind Luftdruck Luftfeuchtigkeit
    00:00 +14°C° 0 mm 1 m/S 681 mmHg 24%
    01:00 +13°C° 0 mm 1 m/S 681 mmHg 23%
    02:00 +12°C° 0 mm 1 m/S 681 mmHg 22%
    03:00 +12°C° 0 mm 1 m/S 680 mmHg 21%
    04:00 +11°C° 0 mm 1 m/S 680 mmHg 21%
    05:00 +10°C° 0 mm 0 m/S 680 mmHg 20%
    06:00 +12°C° 0 mm 1 m/S 681 mmHg 17%
    07:00 +14°C° 0 mm 1 m/S 681 mmHg 14%
    08:00 +15°C° 0 mm 1 m/S 682 mmHg 11%
    09:00 +19°C° 0 mm 1 m/S 683 mmHg 11%
    10:00 +21°C° 0 mm 1 m/S 683 mmHg 10%
    11:00 +23°C° 0 mm 2 m/S 684 mmHg 10%
    12:00 +23°C° 0 mm 2 m/S 683 mmHg 13%
    13:00 +24°C° 0 mm 2 m/S 683 mmHg 15%
    14:00 +24°C° 0 mm 3 m/S 683 mmHg 18%
    15:00 +23°C° 0 mm 2 m/S 682 mmHg 22%
    16:00 +22°C° 0 mm 1 m/S 682 mmHg 25%
    17:00 +21°C° 0 mm 1 m/S 681 mmHg 29%
    18:00 +20°C° 0 mm 1 m/S 682 mmHg 31%
    19:00 +17°C° 0 mm 0 m/S 682 mmHg 32%
    20:00 +16°C° 0 mm 0 m/S 682 mmHg 34%
    21:00 +16°C° 0 mm 0 m/S 681 mmHg 35%
    22:00 +16°C° 0 mm 0 m/S 681 mmHg 35%
    23:00 +15°C° 0 mm 0 m/S 681 mmHg 36%

    26 Januar, Samstag

    Zeit Temperatur Niederschläge Wind Luftdruck Luftfeuchtigkeit
    00:00 +14°C° 0 mm 0 m/S 681 mmHg 39%
    01:00 +13°C° 0 mm 0 m/S 680 mmHg 42%
    02:00 +13°C° 0 mm 0 m/S 680 mmHg 45%
    03:00 +13°C° 0 mm 0 m/S 680 mmHg 45%
    04:00 +13°C° 0 mm 0 m/S 679 mmHg 44%
    05:00 +13°C° 0 mm 0 m/S 679 mmHg 43%
    06:00 +14°C° 0 mm 0 m/S 680 mmHg 39%
    07:00 +15°C° 0 mm 0 m/S 681 mmHg 35%
    08:00 +16°C° 0 mm 0 m/S 681 mmHg 30%
    09:00 +20°C° 0 mm 1 m/S 682 mmHg 26%
    10:00 +21°C° 0 mm 1 m/S 682 mmHg 21%
    11:00 +23°C° 0 mm 1 m/S 683 mmHg 17%
    12:00 +24°C° 0 mm 1 m/S 682 mmHg 17%
    13:00 +24°C° 0 mm 2 m/S 682 mmHg 17%
    14:00 +25°C° 0 mm 2 m/S 682 mmHg 18%
    15:00 +24°C° 0 mm 2 m/S 681 mmHg 21%
    16:00 +23°C° 0 mm 2 m/S 681 mmHg 25%
    17:00 +22°C° 0 mm 1 m/S 681 mmHg 28%
    18:00 +20°C° 0 mm 1 m/S 681 mmHg 29%
    19:00 +19°C° 0 mm 1 m/S 681 mmHg 30%
    20:00 +16°C° 0 mm 1 m/S 681 mmHg 30%
    21:00 +16°C° 0 mm 1 m/S 681 mmHg 27%
    22:00 +15°C° 0 mm 1 m/S 681 mmHg 25%
    23:00 +15°C° 0 mm 1 m/S 681 mmHg 22%

    27 Januar, Sonntag

    Zeit Temperatur Niederschläge Wind Luftdruck Luftfeuchtigkeit
    00:00 +15°C° 0 mm 1 m/S 681 mmHg 20%
    01:00 +14°C° 0 mm 1 m/S 681 mmHg 19%
    02:00 +14°C° 0 mm 1 m/S 681 mmHg 17%
    03:00 +13°C° 0 mm 2 m/S 680 mmHg 17%
    04:00 +13°C° 0 mm 2 m/S 680 mmHg 17%
    05:00 +12°C° 0 mm 2 m/S 680 mmHg 17%
    06:00 +13°C° 0 mm 2 m/S 681 mmHg 15%
    07:00 +14°C° 0 mm 2 m/S 682 mmHg 14%
    08:00 +15°C° 0 mm 2 m/S 682 mmHg 13%
    09:00 +17°C° 0 mm 2 m/S 683 mmHg 13%
    10:00 +18°C° 0 mm 2 m/S 683 mmHg 12%
    11:00 +20°C° 0 mm 3 m/S 684 mmHg 11%
    12:00 +20°C° 0 mm 3 m/S 683 mmHg 11%
    13:00 +21°C° 0 mm 3 m/S 683 mmHg 11%
    14:00 +21°C° 0 mm 3 m/S 683 mmHg 11%
    15:00 +21°C° 0 mm 3 m/S 683 mmHg 12%
    16:00 +20°C° 0 mm 3 m/S 683 mmHg 14%
    17:00 +19°C° 0 mm 2 m/S 683 mmHg 16%
    18:00 +17°C° 0 mm 2 m/S 683 mmHg 18%
    19:00 +16°C° 0 mm 2 m/S 683 mmHg 20%
    20:00 +14°C° 0 mm 2 m/S 683 mmHg 22%
    21:00 +14°C° 0 mm 2 m/S 683 mmHg 22%
    22:00 +13°C° 0 mm 2 m/S 683 mmHg 22%
    23:00 +12°C° 0 mm 2 m/S 683 mmHg 22%
    Mehr zeigen